Year,Month,Day,Hour,Minute,Value (Times are PST for temperature in C)
2016,01,25,00,00,5.60
2016,01,25,00,01,5.60
2016,01,25,00,02,5.60
2016,01,25,00,03,5.60
2016,01,25,00,04,5.60
2016,01,25,00,05,5.60
2016,01,25,00,06,5.60
2016,01,25,00,07,5.60
2016,01,25,00,08,5.60
2016,01,25,00,09,5.60
2016,01,25,00,10,5.60
2016,01,25,00,11,5.60
2016,01,25,00,12,5.60
2016,01,25,00,13,5.60
2016,01,25,00,14,5.60
2016,01,25,00,15,5.60
2016,01,25,00,16,5.70
2016,01,25,00,17,5.70
2016,01,25,00,18,5.70
2016,01,25,00,19,5.70
2016,01,25,00,20,5.70
2016,01,25,00,21,5.70
2016,01,25,00,22,5.70
2016,01,25,00,23,5.70
2016,01,25,00,24,5.70
2016,01,25,00,25,5.70
2016,01,25,00,26,5.70
2016,01,25,00,27,5.70
2016,01,25,00,28,5.70
2016,01,25,00,29,5.70
2016,01,25,00,30,5.70
2016,01,25,00,31,5.70
2016,01,25,00,32,5.70
2016,01,25,00,33,5.70
2016,01,25,00,34,5.70
2016,01,25,00,35,5.70
2016,01,25,00,36,5.70
2016,01,25,00,37,5.70
2016,01,25,00,38,5.70
2016,01,25,00,39,5.70
2016,01,25,00,40,5.70
2016,01,25,00,41,5.70
2016,01,25,00,42,5.70
2016,01,25,00,43,5.80
2016,01,25,00,44,5.80
2016,01,25,00,45,5.80
2016,01,25,00,46,5.80
2016,01,25,00,47,5.80
2016,01,25,00,48,5.80
2016,01,25,00,49,5.90
2016,01,25,00,50,5.90
2016,01,25,00,51,5.90
2016,01,25,00,52,5.90
2016,01,25,00,53,5.90
2016,01,25,00,54,5.90
2016,01,25,00,55,5.90
2016,01,25,00,56,5.90
2016,01,25,00,57,6.00
2016,01,25,00,58,6.00
2016,01,25,00,59,6.00
2016,01,25,01,00,6.00
2016,01,25,01,01,6.00
2016,01,25,01,02,6.00
2016,01,25,01,03,6.00
2016,01,25,01,04,6.00
2016,01,25,01,05,6.00
2016,01,25,01,06,6.00
2016,01,25,01,07,6.00
2016,01,25,01,08,6.00
2016,01,25,01,09,6.00
2016,01,25,01,10,6.00
2016,01,25,01,11,6.00
2016,01,25,01,12,5.90
2016,01,25,01,13,5.90
2016,01,25,01,14,5.90
2016,01,25,01,15,5.90
2016,01,25,01,16,5.90
2016,01,25,01,17,5.90
2016,01,25,01,18,5.90
2016,01,25,01,19,5.90
2016,01,25,01,20,5.80
2016,01,25,01,21,5.80
2016,01,25,01,22,5.80
2016,01,25,01,23,5.80
2016,01,25,01,24,5.80
2016,01,25,01,25,5.80
2016,01,25,01,26,5.80
2016,01,25,01,27,5.80
2016,01,25,01,28,5.80
2016,01,25,01,29,5.80
2016,01,25,01,30,5.70
2016,01,25,01,31,5.70
2016,01,25,01,32,5.70
2016,01,25,01,33,5.80
2016,01,25,01,34,5.80
2016,01,25,01,35,5.70
2016,01,25,01,36,5.70
2016,01,25,01,37,5.70
2016,01,25,01,38,5.70
2016,01,25,01,39,5.70
2016,01,25,01,40,5.70
2016,01,25,01,41,5.70
2016,01,25,01,42,5.70
2016,01,25,01,43,5.70
2016,01,25,01,44,5.60
2016,01,25,01,45,5.60
2016,01,25,01,46,5.60
2016,01,25,01,47,5.60
2016,01,25,01,48,5.60
2016,01,25,01,49,5.60
2016,01,25,01,50,5.60
2016,01,25,01,51,5.60
2016,01,25,01,52,5.60
2016,01,25,01,53,5.60
2016,01,25,01,54,5.60
2016,01,25,01,55,5.60
2016,01,25,01,56,5.60
2016,01,25,01,57,5.60
2016,01,25,01,58,5.60
2016,01,25,01,59,5.60
2016,01,25,02,00,5.60
2016,01,25,02,01,5.60
2016,01,25,02,02,5.60
2016,01,25,02,03,5.60
2016,01,25,02,04,5.60
2016,01,25,02,05,5.60
2016,01,25,02,06,5.50
2016,01,25,02,07,5.50
2016,01,25,02,08,5.50
2016,01,25,02,09,5.50
2016,01,25,02,10,5.50
2016,01,25,02,11,5.50
2016,01,25,02,12,5.50
2016,01,25,02,13,5.50
2016,01,25,02,14,5.40
2016,01,25,02,15,5.40
2016,01,25,02,16,5.40
2016,01,25,02,17,5.40
2016,01,25,02,18,5.40
2016,01,25,02,19,5.40
2016,01,25,02,20,5.40
2016,01,25,02,21,5.40
2016,01,25,02,22,5.50
2016,01,25,02,23,5.50
2016,01,25,02,24,5.50
2016,01,25,02,25,5.50
2016,01,25,02,26,5.50
2016,01,25,02,27,5.50
2016,01,25,02,28,5.50
2016,01,25,02,29,5.50
2016,01,25,02,30,5.50
2016,01,25,02,31,5.50
2016,01,25,02,32,5.50
2016,01,25,02,33,5.50
2016,01,25,02,34,5.50
2016,01,25,02,35,5.50
2016,01,25,02,36,5.50
2016,01,25,02,37,5.50
2016,01,25,02,38,5.60
2016,01,25,02,39,5.60
2016,01,25,02,40,5.60
2016,01,25,02,41,5.50
2016,01,25,02,42,5.60
2016,01,25,02,43,5.60
2016,01,25,02,44,5.60
2016,01,25,02,45,5.60
2016,01,25,02,46,5.60
2016,01,25,02,47,5.60
2016,01,25,02,48,5.60
2016,01,25,02,49,5.60
2016,01,25,02,50,5.60
2016,01,25,02,51,5.60
2016,01,25,02,52,5.70
2016,01,25,02,53,5.70
2016,01,25,02,54,5.70
2016,01,25,02,55,5.70
2016,01,25,02,56,5.70
2016,01,25,02,57,5.70
2016,01,25,02,58,5.70
2016,01,25,02,59,5.70
2016,01,25,03,00,5.70
2016,01,25,03,01,5.70
2016,01,25,03,02,5.70
2016,01,25,03,03,5.70
2016,01,25,03,04,5.70
2016,01,25,03,05,5.70
2016,01,25,03,06,5.70
2016,01,25,03,07,5.70
2016,01,25,03,08,5.80
2016,01,25,03,09,5.80
2016,01,25,03,10,5.80
2016,01,25,03,11,5.80
2016,01,25,03,12,5.80
2016,01,25,03,13,5.90
2016,01,25,03,14,5.90
2016,01,25,03,15,5.90
2016,01,25,03,16,5.90
2016,01,25,03,17,5.90
2016,01,25,03,18,5.90
2016,01,25,03,19,5.90
2016,01,25,03,20,5.90
2016,01,25,03,21,5.90
2016,01,25,03,22,6.00
2016,01,25,03,23,6.00
2016,01,25,03,24,6.00
2016,01,25,03,25,6.00
2016,01,25,03,26,6.10
2016,01,25,03,27,6.10
2016,01,25,03,28,6.10
2016,01,25,03,29,6.10
2016,01,25,03,30,6.10
2016,01,25,03,31,6.10
2016,01,25,03,32,6.10
2016,01,25,03,33,6.20
2016,01,25,03,34,6.20
2016,01,25,03,35,6.20
2016,01,25,03,36,6.20
2016,01,25,03,37,6.20
2016,01,25,03,38,6.20
2016,01,25,03,39,6.20
2016,01,25,03,40,6.20
2016,01,25,03,41,6.20
2016,01,25,03,42,6.20
2016,01,25,03,43,6.20
2016,01,25,03,44,6.20
2016,01,25,03,45,6.20
2016,01,25,03,46,6.20
2016,01,25,03,47,6.20
2016,01,25,03,48,6.20
2016,01,25,03,49,6.20
2016,01,25,03,50,6.20
2016,01,25,03,51,6.20
2016,01,25,03,52,6.20
2016,01,25,03,53,6.20
2016,01,25,03,54,6.20
2016,01,25,03,55,6.20
2016,01,25,03,56,6.20
2016,01,25,03,57,6.20
2016,01,25,03,58,6.20
2016,01,25,03,59,6.20
2016,01,25,04,00,6.20
2016,01,25,04,01,6.20
2016,01,25,04,02,6.20
2016,01,25,04,03,6.20
2016,01,25,04,04,6.30
2016,01,25,04,05,6.30
2016,01,25,04,06,6.30
2016,01,25,04,07,6.30
2016,01,25,04,08,6.30
2016,01,25,04,09,6.30
2016,01,25,04,10,6.30
2016,01,25,04,11,6.30
2016,01,25,04,12,6.30
2016,01,25,04,13,6.30
2016,01,25,04,14,6.30
2016,01,25,04,15,6.30
2016,01,25,04,16,6.30
2016,01,25,04,17,6.30
2016,01,25,04,18,6.30
2016,01,25,04,19,6.30
2016,01,25,04,20,6.30
2016,01,25,04,21,6.30
2016,01,25,04,22,6.30
2016,01,25,04,23,6.30
2016,01,25,04,24,6.30
2016,01,25,04,25,6.30
2016,01,25,04,26,6.30
2016,01,25,04,27,6.30
2016,01,25,04,28,6.30
2016,01,25,04,29,6.30
2016,01,25,04,30,6.20
2016,01,25,04,31,6.20
2016,01,25,04,32,6.20
2016,01,25,04,33,6.20
2016,01,25,04,34,6.20
2016,01,25,04,35,6.20
2016,01,25,04,36,6.20
2016,01,25,04,37,6.20
2016,01,25,04,38,6.20
2016,01,25,04,39,6.20
2016,01,25,04,40,6.20
2016,01,25,04,41,6.20
2016,01,25,04,42,6.20
2016,01,25,04,43,6.20
2016,01,25,04,44,6.20
2016,01,25,04,45,6.20
2016,01,25,04,46,6.20
2016,01,25,04,47,6.20
2016,01,25,04,48,6.20
2016,01,25,04,49,6.20
2016,01,25,04,50,6.20
2016,01,25,04,51,6.20
2016,01,25,04,52,6.20
2016,01,25,04,53,6.20
2016,01,25,04,54,6.20
2016,01,25,04,55,6.30
2016,01,25,04,56,6.30
2016,01,25,04,57,6.30
2016,01,25,04,58,6.30
2016,01,25,04,59,6.30
2016,01,25,05,00,6.30
2016,01,25,05,01,6.30
2016,01,25,05,02,6.30
2016,01,25,05,03,6.30
2016,01,25,05,04,6.30
2016,01,25,05,05,6.30
2016,01,25,05,06,6.30
2016,01,25,05,07,6.30
2016,01,25,05,08,6.30
2016,01,25,05,09,6.40
2016,01,25,05,10,6.40
2016,01,25,05,11,6.40
2016,01,25,05,12,6.40
2016,01,25,05,13,6.40
2016,01,25,05,14,6.40
2016,01,25,05,15,6.40
2016,01,25,05,16,6.40
2016,01,25,05,17,6.40
2016,01,25,05,18,6.40
2016,01,25,05,19,6.40
2016,01,25,05,20,6.40
2016,01,25,05,21,6.40
2016,01,25,05,22,6.40
2016,01,25,05,23,6.40
2016,01,25,05,24,6.40
2016,01,25,05,25,6.40
2016,01,25,05,26,6.40
2016,01,25,05,27,6.40
2016,01,25,05,28,6.50
2016,01,25,05,29,6.50
2016,01,25,05,30,6.50
2016,01,25,05,31,6.50
2016,01,25,05,32,6.50
2016,01,25,05,33,6.50
2016,01,25,05,34,6.50
2016,01,25,05,35,6.50
2016,01,25,05,36,6.50
2016,01,25,05,37,6.60
2016,01,25,05,38,6.60
2016,01,25,05,39,6.60
2016,01,25,05,40,6.60
2016,01,25,05,41,6.60
2016,01,25,05,42,6.60
2016,01,25,05,43,6.60
2016,01,25,05,44,6.60
2016,01,25,05,45,6.60
2016,01,25,05,46,6.60
2016,01,25,05,47,6.60
2016,01,25,05,48,6.60
2016,01,25,05,49,6.60
2016,01,25,05,50,6.60
2016,01,25,05,51,6.60
2016,01,25,05,52,6.60
2016,01,25,05,53,6.60
2016,01,25,05,54,6.60
2016,01,25,05,55,6.60
2016,01,25,05,56,6.60
2016,01,25,05,57,6.60
2016,01,25,05,58,6.60
2016,01,25,05,59,6.60
2016,01,25,06,00,6.60
2016,01,25,06,01,6.60
2016,01,25,06,02,6.50
2016,01,25,06,03,6.50
2016,01,25,06,04,6.50
2016,01,25,06,05,6.50
2016,01,25,06,06,6.50
2016,01,25,06,07,6.50
2016,01,25,06,08,6.50
2016,01,25,06,09,6.50
2016,01,25,06,10,6.50
2016,01,25,06,11,6.50
2016,01,25,06,12,6.50
2016,01,25,06,13,6.50
2016,01,25,06,14,6.50
2016,01,25,06,15,6.50
2016,01,25,06,16,6.50
2016,01,25,06,17,6.50
2016,01,25,06,18,6.50
2016,01,25,06,19,6.50
2016,01,25,06,20,6.50
2016,01,25,06,21,6.50
2016,01,25,06,22,6.50
2016,01,25,06,23,6.50
2016,01,25,06,24,6.50
2016,01,25,06,25,6.50
2016,01,25,06,26,6.50
2016,01,25,06,27,6.50
2016,01,25,06,28,6.50
2016,01,25,06,29,6.50
2016,01,25,06,30,6.50
2016,01,25,06,31,6.50
2016,01,25,06,32,6.50
2016,01,25,06,33,6.50
2016,01,25,06,34,6.50
2016,01,25,06,35,6.50
2016,01,25,06,36,6.50
2016,01,25,06,37,6.50
2016,01,25,06,38,6.50
2016,01,25,06,39,6.50
2016,01,25,06,40,6.50
2016,01,25,06,41,6.50
2016,01,25,06,42,6.40
2016,01,25,06,43,6.40
2016,01,25,06,44,6.40
2016,01,25,06,45,6.40
2016,01,25,06,46,6.40
2016,01,25,06,47,6.40
2016,01,25,06,48,6.40
2016,01,25,06,49,6.40
2016,01,25,06,50,6.40
2016,01,25,06,51,6.40
2016,01,25,06,52,6.40
2016,01,25,06,53,6.40
2016,01,25,06,54,6.40
2016,01,25,06,55,6.40
2016,01,25,06,56,6.40
2016,01,25,06,57,6.40
2016,01,25,06,58,6.40
2016,01,25,06,59,6.40
2016,01,25,07,00,6.40
2016,01,25,07,01,6.40
2016,01,25,07,02,6.40
2016,01,25,07,03,6.40
2016,01,25,07,04,6.40
2016,01,25,07,05,6.40
2016,01,25,09,03,6.40
2016,01,25,09,04,6.40
2016,01,25,09,05,6.40
2016,01,25,09,06,6.40
2016,01,25,09,07,6.40
2016,01,25,09,08,6.40
2016,01,25,09,09,6.40
2016,01,25,09,10,6.50
2016,01,25,09,11,6.50
2016,01,25,09,12,6.50
2016,01,25,09,13,6.50
2016,01,25,09,14,6.50
2016,01,25,09,15,6.60
2016,01,25,09,16,6.60
2016,01,25,09,17,6.60
2016,01,25,09,18,6.60
2016,01,25,09,19,6.60
2016,01,25,09,20,6.60
2016,01,25,09,21,6.60
2016,01,25,09,22,6.70
2016,01,25,09,23,6.70
2016,01,25,09,24,6.70
2016,01,25,09,25,6.70
2016,01,25,09,26,6.70
2016,01,25,09,27,6.70
2016,01,25,09,28,6.70
2016,01,25,09,29,6.70
2016,01,25,09,30,6.70
2016,01,25,09,31,6.70
2016,01,25,09,32,6.70
2016,01,25,09,33,6.70
2016,01,25,09,34,6.70
2016,01,25,09,35,6.70
2016,01,25,09,36,6.80
2016,01,25,09,37,6.80
2016,01,25,09,38,6.80
2016,01,25,09,39,6.80
2016,01,25,09,40,6.80
2016,01,25,09,41,6.80
2016,01,25,09,42,6.80
2016,01,25,09,43,6.80
2016,01,25,09,44,6.80
2016,01,25,09,45,6.80
2016,01,25,09,46,6.90
2016,01,25,09,47,6.90
2016,01,25,09,48,6.90
2016,01,25,09,49,6.90
2016,01,25,09,50,6.90
2016,01,25,09,51,6.90
2016,01,25,09,52,6.90
2016,01,25,09,53,6.90
2016,01,25,09,54,6.90
2016,01,25,09,55,6.90
2016,01,25,09,56,6.90
2016,01,25,09,57,6.90
2016,01,25,09,58,6.90
2016,01,25,09,59,6.90
2016,01,25,10,00,7.00
2016,01,25,10,01,6.90
2016,01,25,10,02,7.00
2016,01,25,10,03,7.00
2016,01,25,10,04,7.00
2016,01,25,10,05,7.10
2016,01,25,10,06,7.10
2016,01,25,10,07,7.10
2016,01,25,10,08,7.10
2016,01,25,10,09,7.10
2016,01,25,10,10,7.10
2016,01,25,10,11,7.10
2016,01,25,10,12,7.10
2016,01,25,10,13,7.10
2016,01,25,10,14,7.20
2016,01,25,10,15,7.20
2016,01,25,10,16,7.20
2016,01,25,10,17,7.20
2016,01,25,10,18,7.20
2016,01,25,10,19,7.20
2016,01,25,10,20,7.20
2016,01,25,10,21,7.20
2016,01,25,10,22,7.20
2016,01,25,10,23,7.20
2016,01,25,10,24,7.20
2016,01,25,10,25,7.20
2016,01,25,10,26,7.20
2016,01,25,10,27,7.20
2016,01,25,10,28,7.30
2016,01,25,10,29,7.30
2016,01,25,10,30,7.30
2016,01,25,10,31,7.30
2016,01,25,10,32,7.30
2016,01,25,10,33,7.30
2016,01,25,10,34,7.30
2016,01,25,10,35,7.40
2016,01,25,10,36,7.40
2016,01,25,10,37,7.40
2016,01,25,10,38,7.40
2016,01,25,10,39,7.40
2016,01,25,10,40,7.40
2016,01,25,10,41,7.40
2016,01,25,10,42,7.40
2016,01,25,10,43,7.40
2016,01,25,10,44,7.40
2016,01,25,10,45,7.40
2016,01,25,10,46,7.40
2016,01,25,10,47,7.40
2016,01,25,10,48,7.40
2016,01,25,10,49,7.40
2016,01,25,10,50,7.40
2016,01,25,10,51,7.40
2016,01,25,10,52,7.50
2016,01,25,10,53,7.50
2016,01,25,10,54,7.50
2016,01,25,10,55,7.50
2016,01,25,10,56,7.60
2016,01,25,10,57,7.60
2016,01,25,10,58,7.60
2016,01,25,10,59,7.60
2016,01,25,11,00,7.60
2016,01,25,11,01,7.60
2016,01,25,11,02,7.60
2016,01,25,11,03,7.60
2016,01,25,11,04,7.70
2016,01,25,11,05,7.60
2016,01,25,11,06,7.60
2016,01,25,11,07,7.60
2016,01,25,11,08,7.60
2016,01,25,11,09,7.70
2016,01,25,11,10,7.70
2016,01,25,11,11,7.70
2016,01,25,11,12,7.70
2016,01,25,11,13,7.70
2016,01,25,11,14,7.80
2016,01,25,11,15,7.80
2016,01,25,11,16,7.80
2016,01,25,11,17,7.70
2016,01,25,11,18,7.70
2016,01,25,11,19,7.70
2016,01,25,11,20,7.80
2016,01,25,11,21,7.80
2016,01,25,11,22,7.70
2016,01,25,11,23,7.70
2016,01,25,11,24,7.70
2016,01,25,11,25,7.70
2016,01,25,11,26,7.80
2016,01,25,11,27,7.80
2016,01,25,11,28,7.80
2016,01,25,11,29,7.80
2016,01,25,11,30,7.80
2016,01,25,11,31,7.90
2016,01,25,11,32,7.90
2016,01,25,11,33,7.90
2016,01,25,11,34,7.90
2016,01,25,11,35,7.90
2016,01,25,11,36,7.90
2016,01,25,11,37,7.90
2016,01,25,11,38,7.90
2016,01,25,11,39,7.90
2016,01,25,11,40,7.90
2016,01,25,11,41,8.00
2016,01,25,11,42,8.00
2016,01,25,11,43,8.00
2016,01,25,11,44,8.00
2016,01,25,11,45,8.00
2016,01,25,11,46,8.00
2016,01,25,11,47,8.00
2016,01,25,11,48,8.00
2016,01,25,11,49,8.00
2016,01,25,11,50,8.00
2016,01,25,11,51,7.90
2016,01,25,11,52,7.90
2016,01,25,11,53,7.90
2016,01,25,11,54,8.00
2016,01,25,11,55,8.00
2016,01,25,11,56,8.00
2016,01,25,11,57,8.10
2016,01,25,11,58,8.10
2016,01,25,11,59,8.10
2016,01,25,12,00,8.10
2016,01,25,12,01,8.10
2016,01,25,12,02,8.20
2016,01,25,12,03,8.20
2016,01,25,12,04,8.20
2016,01,25,12,05,8.20
2016,01,25,12,06,8.20
2016,01,25,12,07,8.20
2016,01,25,12,08,8.30
2016,01,25,12,09,8.30
2016,01,25,12,10,8.30
2016,01,25,12,11,8.30
2016,01,25,12,12,8.20
2016,01,25,12,13,8.20
2016,01,25,12,14,8.20
2016,01,25,12,15,8.20
2016,01,25,12,16,8.20
2016,01,25,12,17,8.20
2016,01,25,12,18,8.30
2016,01,25,12,19,8.20
2016,01,25,12,20,8.20
2016,01,25,12,21,8.20
2016,01,25,12,22,8.20
2016,01,25,12,23,8.20
2016,01,25,12,24,8.20
2016,01,25,12,25,8.20
2016,01,25,12,26,8.20
2016,01,25,12,27,8.30
2016,01,25,12,28,8.30
2016,01,25,12,29,8.30
2016,01,25,12,30,8.30
2016,01,25,12,31,8.30
2016,01,25,12,32,8.30
2016,01,25,12,33,8.30
2016,01,25,12,34,8.30
2016,01,25,12,35,8.30
2016,01,25,12,36,8.30
2016,01,25,12,37,8.30
2016,01,25,12,38,8.30
2016,01,25,12,39,8.30
2016,01,25,12,40,8.30
2016,01,25,12,41,8.40
2016,01,25,12,42,8.40
2016,01,25,12,43,8.40
2016,01,25,12,44,8.40
2016,01,25,12,45,8.40
2016,01,25,12,46,8.40
2016,01,25,12,47,8.40
2016,01,25,12,48,8.40
2016,01,25,12,49,8.40
2016,01,25,12,50,8.40
2016,01,25,12,51,8.40
2016,01,25,12,52,8.40
2016,01,25,12,53,8.40
2016,01,25,12,54,8.40
2016,01,25,12,55,8.40
2016,01,25,12,56,8.40
2016,01,25,12,57,8.40
2016,01,25,12,58,8.40
2016,01,25,12,59,8.40
2016,01,25,13,00,8.40
2016,01,25,13,01,8.40
2016,01,25,13,02,8.40
2016,01,25,13,03,8.30
2016,01,25,13,04,8.30
2016,01,25,13,05,8.30
2016,01,25,13,06,8.30
2016,01,25,13,07,8.30
2016,01,25,13,08,8.30
2016,01,25,13,09,8.40
2016,01,25,13,10,8.40
2016,01,25,13,11,8.40
2016,01,25,13,12,8.40
2016,01,25,13,13,8.40
2016,01,25,13,14,8.40
2016,01,25,13,15,8.40
2016,01,25,13,16,8.40
2016,01,25,13,17,8.40
2016,01,25,13,18,8.40
2016,01,25,13,19,8.40
2016,01,25,13,20,8.40
2016,01,25,13,21,8.40
2016,01,25,13,22,8.40
2016,01,25,13,23,8.40
2016,01,25,13,24,8.40
2016,01,25,13,25,8.40
2016,01,25,13,26,8.40
2016,01,25,13,27,8.40
2016,01,25,13,28,8.40
2016,01,25,13,29,8.30
2016,01,25,13,30,8.40
2016,01,25,13,31,8.40
2016,01,25,13,32,8.40
2016,01,25,13,33,8.40
2016,01,25,13,34,8.40
2016,01,25,13,35,8.50
2016,01,25,13,36,8.50
2016,01,25,13,37,8.50
2016,01,25,13,38,8.50
2016,01,25,13,39,8.60
2016,01,25,13,40,8.50
2016,01,25,13,41,8.50
2016,01,25,13,42,8.50
2016,01,25,13,43,8.50
2016,01,25,13,44,8.40
2016,01,25,13,45,8.40
2016,01,25,13,46,8.40
2016,01,25,13,47,8.40
2016,01,25,13,48,8.40
2016,01,25,13,49,8.40
2016,01,25,13,50,8.40
2016,01,25,13,51,8.40
2016,01,25,13,52,8.40
2016,01,25,13,53,8.40
2016,01,25,13,54,8.40
2016,01,25,13,55,8.40
2016,01,25,13,56,8.40
2016,01,25,13,57,8.40
2016,01,25,13,58,8.40
2016,01,25,13,59,8.40
2016,01,25,14,00,8.40
2016,01,25,14,01,8.40
2016,01,25,14,02,8.40
2016,01,25,14,03,8.40
2016,01,25,14,04,8.40
2016,01,25,14,05,8.40
2016,01,25,14,06,8.40
2016,01,25,14,07,8.30
2016,01,25,14,08,8.30
2016,01,25,14,09,8.30
2016,01,25,14,10,8.30
2016,01,25,14,11,8.30
2016,01,25,14,12,8.30
2016,01,25,14,13,8.30
2016,01,25,14,14,8.30
2016,01,25,14,15,8.30
2016,01,25,14,16,8.30
2016,01,25,14,17,8.30
2016,01,25,14,18,8.30
2016,01,25,14,19,8.30
2016,01,25,14,20,8.30
2016,01,25,14,21,8.30
2016,01,25,14,22,8.30
2016,01,25,14,23,8.30
2016,01,25,14,24,8.30
2016,01,25,14,25,8.30
2016,01,25,14,26,8.20
2016,01,25,14,27,8.20
2016,01,25,14,28,8.20
2016,01,25,14,29,8.30
2016,01,25,14,30,8.30
2016,01,25,14,31,8.30
2016,01,25,14,32,8.30
2016,01,25,14,33,8.30
2016,01,25,14,34,8.40
2016,01,25,14,35,8.40
2016,01,25,14,36,8.40
2016,01,25,14,37,8.40
2016,01,25,14,38,8.50
2016,01,25,14,39,8.50
2016,01,25,14,40,8.50
2016,01,25,14,41,8.50
2016,01,25,14,42,8.50
2016,01,25,14,43,8.50
2016,01,25,14,44,8.50
2016,01,25,14,45,8.50
2016,01,25,14,46,8.50
2016,01,25,14,47,8.60
2016,01,25,14,48,8.60
2016,01,25,14,49,8.60
2016,01,25,14,50,8.60
2016,01,25,14,51,8.60
2016,01,25,14,52,8.60
2016,01,25,14,53,8.60
2016,01,25,14,54,8.60
2016,01,25,14,55,8.60
2016,01,25,14,56,8.60
2016,01,25,14,57,8.60
2016,01,25,14,58,8.60
2016,01,25,14,59,8.60
2016,01,25,15,00,8.60
2016,01,25,15,01,8.60
2016,01,25,15,02,8.60
2016,01,25,15,03,8.60
2016,01,25,15,04,8.70
2016,01,25,15,05,8.70
2016,01,25,15,06,8.70
2016,01,25,15,07,8.70
2016,01,25,15,08,8.70
2016,01,25,15,09,8.70
2016,01,25,15,10,8.70
2016,01,25,15,11,8.70
2016,01,25,15,12,8.70
2016,01,25,15,13,8.70
2016,01,25,15,14,8.70
2016,01,25,15,15,8.60
2016,01,25,15,16,8.60
2016,01,25,15,17,8.70
2016,01,25,15,18,8.70
2016,01,25,15,19,8.70
2016,01,25,15,20,8.70
2016,01,25,15,21,8.70
2016,01,25,15,22,8.70
2016,01,25,15,23,8.70
2016,01,25,15,24,8.70
2016,01,25,15,25,8.70
2016,01,25,15,26,8.70
2016,01,25,15,27,8.70
2016,01,25,15,28,8.70
2016,01,25,15,29,8.70
2016,01,25,15,30,8.70
2016,01,25,15,31,8.80
2016,01,25,15,32,8.80
2016,01,25,15,33,8.80
2016,01,25,15,34,8.80
2016,01,25,15,35,8.80
2016,01,25,15,36,8.80
2016,01,25,15,37,8.80
2016,01,25,15,38,8.80
2016,01,25,15,39,8.80
2016,01,25,15,40,8.80
2016,01,25,15,41,8.80
2016,01,25,15,42,8.80
2016,01,25,15,43,8.70
2016,01,25,15,44,8.70
2016,01,25,15,45,8.70
2016,01,25,15,46,8.70
2016,01,25,15,47,8.70
2016,01,25,15,48,8.70
2016,01,25,15,49,8.70
2016,01,25,15,50,8.70
2016,01,25,15,51,8.60
2016,01,25,15,52,8.60
2016,01,25,15,53,8.60
2016,01,25,15,54,8.60
2016,01,25,15,55,8.60
2016,01,25,15,56,8.60
2016,01,25,15,57,8.60
2016,01,25,15,58,8.60
2016,01,25,15,59,8.60
2016,01,25,16,00,8.60
2016,01,25,16,01,8.60
2016,01,25,16,02,8.60
2016,01,25,16,03,8.60
2016,01,25,16,04,8.60
2016,01,25,16,05,8.60
2016,01,25,16,06,8.60
2016,01,25,16,07,8.60
2016,01,25,16,08,8.60
2016,01,25,16,09,8.60
2016,01,25,16,10,8.60
2016,01,25,16,11,8.60
2016,01,25,16,12,8.60
2016,01,25,16,13,8.60
2016,01,25,16,14,8.60
2016,01,25,16,15,8.60
2016,01,25,16,16,8.50
2016,01,25,16,17,8.50
2016,01,25,16,18,8.50
2016,01,25,16,19,8.50
2016,01,25,16,20,8.50
2016,01,25,16,21,8.50
2016,01,25,16,22,8.50
2016,01,25,16,23,8.50
2016,01,25,16,24,8.50
2016,01,25,16,25,8.40
2016,01,25,16,26,8.40
2016,01,25,16,27,8.40
2016,01,25,16,28,8.40
2016,01,25,16,29,8.40
2016,01,25,16,30,8.40
2016,01,25,16,31,8.40
2016,01,25,16,32,8.40
2016,01,25,16,33,8.40
2016,01,25,16,34,8.40
2016,01,25,16,35,8.40
2016,01,25,16,36,8.40
2016,01,25,16,37,8.40
2016,01,25,16,38,8.40
2016,01,25,16,39,8.40
2016,01,25,16,40,8.40
2016,01,25,16,41,8.40
2016,01,25,16,42,8.30
2016,01,25,16,43,8.30
2016,01,25,16,44,8.30
2016,01,25,16,45,8.30
2016,01,25,16,46,8.30
2016,01,25,16,47,8.30
2016,01,25,16,48,8.30
2016,01,25,16,49,8.30
2016,01,25,16,50,8.30
2016,01,25,16,51,8.30
2016,01,25,16,52,8.30
2016,01,25,16,53,8.30
2016,01,25,16,54,8.30
2016,01,25,16,55,8.30
2016,01,25,16,56,8.30
2016,01,25,16,57,8.30
2016,01,25,16,58,8.30
2016,01,25,16,59,8.30
2016,01,25,17,00,8.30
2016,01,25,17,01,8.30
2016,01,25,17,02,8.30
2016,01,25,17,03,8.30
2016,01,25,17,04,8.30
2016,01,25,17,05,8.30
2016,01,25,17,06,8.30
2016,01,25,17,07,8.30
2016,01,25,17,08,8.30
2016,01,25,17,09,8.30
2016,01,25,17,10,8.20
2016,01,25,17,11,8.20
2016,01,25,17,12,8.20
2016,01,25,17,13,8.20
2016,01,25,17,14,8.20
2016,01,25,17,15,8.20
2016,01,25,17,16,8.20
2016,01,25,17,17,8.20
2016,01,25,17,18,8.20
2016,01,25,17,19,8.20
2016,01,25,17,20,8.20
2016,01,25,17,21,8.20
2016,01,25,17,22,8.20
2016,01,25,17,23,8.10
2016,01,25,17,24,8.10
2016,01,25,17,25,8.10
2016,01,25,17,26,8.10
2016,01,25,17,27,8.10
2016,01,25,17,28,8.10
2016,01,25,17,29,8.10
2016,01,25,17,30,8.10
2016,01,25,17,31,8.10
2016,01,25,17,32,8.10
2016,01,25,17,33,8.10
2016,01,25,17,34,8.10
2016,01,25,17,35,8.10
2016,01,25,17,36,8.10
2016,01,25,17,37,8.10
2016,01,25,17,38,8.00
2016,01,25,17,39,8.00
2016,01,25,17,40,8.00
2016,01,25,17,41,8.00
2016,01,25,17,42,8.00
2016,01,25,17,43,8.00
2016,01,25,17,44,8.00
2016,01,25,17,45,8.00
2016,01,25,17,46,8.00
2016,01,25,17,47,8.00
2016,01,25,17,48,8.00
2016,01,25,17,49,8.00
2016,01,25,17,50,8.00
2016,01,25,17,51,8.00
2016,01,25,17,52,7.90
2016,01,25,17,53,7.90
2016,01,25,17,54,7.90
2016,01,25,17,55,7.90
2016,01,25,17,56,7.90
2016,01,25,17,57,7.90
2016,01,25,17,58,7.90
2016,01,25,17,59,7.90
2016,01,25,18,00,7.90
2016,01,25,18,01,7.90
2016,01,25,18,02,7.90
2016,01,25,18,03,7.90
2016,01,25,18,04,7.90
2016,01,25,18,05,7.90
2016,01,25,18,06,7.90
2016,01,25,18,07,7.90
2016,01,25,18,08,7.90
2016,01,25,18,09,7.90
2016,01,25,18,10,7.90
2016,01,25,18,11,7.90
2016,01,25,18,12,7.90
2016,01,25,18,13,7.90
2016,01,25,18,14,7.90
2016,01,25,18,15,7.90
2016,01,25,18,16,7.90
2016,01,25,18,17,7.90
2016,01,25,18,18,7.90
2016,01,25,18,19,7.90
2016,01,25,18,20,7.90
2016,01,25,18,21,7.90
2016,01,25,18,22,7.90
2016,01,25,18,23,7.90
2016,01,25,18,24,7.90
2016,01,25,18,25,7.90
2016,01,25,18,26,7.90
2016,01,25,18,27,7.90
2016,01,25,18,28,7.90
2016,01,25,18,29,7.90
2016,01,25,18,30,7.80
2016,01,25,18,31,7.80
2016,01,25,18,32,7.80
2016,01,25,18,33,7.80
2016,01,25,18,34,7.80
2016,01,25,18,35,7.80
2016,01,25,18,36,7.80
2016,01,25,18,37,7.80
2016,01,25,18,38,7.80
2016,01,25,18,39,7.80
2016,01,25,18,40,7.80
2016,01,25,18,41,7.80
2016,01,25,18,42,7.80
2016,01,25,18,43,7.80
2016,01,25,18,44,7.90
2016,01,25,18,45,7.90
2016,01,25,18,46,7.90
2016,01,25,18,47,7.90
2016,01,25,18,48,7.90
2016,01,25,18,49,7.90
2016,01,25,18,50,7.90
2016,01,25,18,51,7.90
2016,01,25,18,52,7.90
2016,01,25,18,53,7.90
2016,01,25,18,54,7.90
2016,01,25,18,55,7.90
2016,01,25,18,56,7.90
2016,01,25,18,57,7.90
2016,01,25,18,58,7.90
2016,01,25,18,59,7.90
2016,01,25,19,00,7.90
2016,01,25,19,01,7.90
2016,01,25,19,02,7.90
2016,01,25,19,03,7.90
2016,01,25,19,04,7.90
2016,01,25,19,05,7.90
2016,01,25,19,06,7.90
2016,01,25,19,07,7.90
2016,01,25,19,08,7.90
2016,01,25,19,09,7.90
2016,01,25,19,10,7.90
2016,01,25,19,11,7.90
2016,01,25,19,12,7.90
2016,01,25,19,13,7.90
2016,01,25,19,14,7.90
2016,01,25,19,15,7.90
2016,01,25,19,16,7.90
2016,01,25,19,17,8.00
2016,01,25,19,18,8.00
2016,01,25,19,19,8.00
2016,01,25,19,20,8.00
2016,01,25,19,21,8.00
2016,01,25,19,22,8.00
2016,01,25,19,23,8.00
2016,01,25,19,24,8.00
2016,01,25,19,25,8.00
2016,01,25,19,26,8.00
2016,01,25,19,27,8.00
2016,01,25,19,28,8.10
2016,01,25,19,29,8.10
2016,01,25,19,30,8.10
2016,01,25,19,31,8.10
2016,01,25,19,32,8.10
2016,01,25,19,33,8.10
2016,01,25,19,34,8.10
2016,01,25,19,35,8.10
2016,01,25,19,36,8.10
2016,01,25,19,37,8.10
2016,01,25,19,38,8.10
2016,01,25,19,39,8.10
2016,01,25,19,40,8.10
2016,01,25,19,41,8.10
2016,01,25,19,42,8.10
2016,01,25,19,43,8.10
2016,01,25,19,44,8.10
2016,01,25,19,45,8.10
2016,01,25,19,46,8.10
2016,01,25,19,47,8.10
2016,01,25,19,48,8.10
2016,01,25,19,49,8.10
2016,01,25,19,50,8.10
2016,01,25,19,51,8.10
2016,01,25,19,52,8.10
2016,01,25,19,53,8.10
2016,01,25,19,54,8.10
2016,01,25,19,55,8.10
2016,01,25,19,56,8.10
2016,01,25,19,57,8.10
2016,01,25,19,58,8.10
2016,01,25,19,59,8.10
2016,01,25,20,00,8.10
2016,01,25,20,01,8.10
2016,01,25,20,02,8.10
2016,01,25,20,03,8.10